User: anonymous   Login
Location: Mentone
(34.5413°N, 85.5351°W)
Time: 01:08:52
(UTC-05:00)
Language:

Cosmos 2150 Rocket - Orbit

View from above orbital plane
View from above orbital plane
View from above satellite
View from above satellite

Ground track
Ground track

The orbit data is extracted from the following two-line orbital elements,

1 21419U 91041B   15210.20157750  .00000054  00000-0  28468-4 0  9999
2 21419 074.0407 119.6077 0041842 215.9570 255.6405 14.33734759261721
Epoch (UTC): 29 July 2015 04:50:16
Eccentricity: 0.0041842
inclination: 74.0407°
perigee height: 749 km
apogee height: 809 km
right ascension of ascending node: 119.6077°
argument of perigee: 215.9570°
revolutions per day: 14.33734759
mean anomaly at epoch: 255.6405°
orbit number at epoch: 26172

The dashed part of the orbit path shows where the satellite is in the earth's shadow,  

DLR